Home   Weather   19°19'N, 99°04'W   Past weeks
Flag for Mexico

Past Weather in 19°19'N, 99°04'W, Mexico — Yesterday and Last 2 Weeks

Now
70 °F

Scattered clouds.


Feels Like: 70 °F
Forecast: 78 / 58 °F
Wind: No wind

Location: Mexico City / Licenci

Current Time: May 24, 2019 at 12:10:16 pm

Latest Report: May 24, 2019 at 10:45 am


Visibility: 5 mi

Pressure: 30.33 "Hg

Humidity: 46%

Dew Point: 48 °F

Location of 19°19'N, 99°04'WLocation

Past Weather in 19°19'N, 99°04'W — Graph

°F

19°19'N, 99°04'W Temperature Yesterday

Maximum temperature yesterday: 84 °F (at 3:53 pm)
Minimum temperature yesterday: 61 °F (at 4:15 am)
Average temperature yesterday: 71 °F

High & Low Weather Summary for the Past Weeks

 TemperatureHumidityPressure
High86 °F (May 14, 2:30 pm)88% (May 17, 5:48 am)30.41 "Hg (May 17, 5:48 am)
Low55 °F (May 17, 5:48 am)5% (May 9, 2:46 pm)29.28 "Hg (May 17, 3:44 pm)
Average72 °F35%30.07 "Hg
* Reported May 9 10:47 am — May 24 10:45 am, 19°19'N, 99°04'W. Weather by CustomWeather, © 2019

Note: Actual official high and low records may vary slightly from our data, if they occured in-between our weather recording intervals... More about our weather records

Advertising

19°19'N, 99°04'W Weather History for the Previous 24 Hours

Scroll right to see more
 ConditionsComfort  
Time TempWeatherWind HumidityBarometerVisibility
10:45 am
Fri, May 24
70 °FScattered clouds.No wind46%30.33 "Hg5 mi
9:46 am66 °FBroken clouds.6 mph52%29.80 "Hg6 mi
8:45 am63 °FPartly sunny.5 mph59%30.32 "Hg6 mi
7:45 am63 °FPartly sunny.6 mph64%30.30 "Hg6 mi
6:48 am59 °FPartly cloudy.5 mph68%29.71 "Hg6 mi
5:44 am59 °FPassing clouds.5 mph68%30.25 "Hg8 mi
4:44 am61 °FPassing clouds.3 mph63%30.26 "Hg8 mi
3:46 am63 °FPartly cloudy.2 mph56%29.66 "Hg8 mi
2:40 am63 °FPassing clouds.6 mph59%30.28 "Hg6 mi
1:45 am64 °FPartly cloudy.5 mph64%30.30 "Hg6 mi
12:45 am64 °FPartly cloudy.12 mph60%29.72 "Hg6 mi
11:40 pm
Thu, May 23
64 °FPartly cloudy.7 mph64%30.30 "Hg6 mi
10:46 pm64 °FPartly cloudy.9 mph60%30.28 "Hg6 mi
10:33 pm64 °FPartly cloudy.7 mph64%30.28 "Hg6 mi
10:08 pm64 °FLight rain. Mostly cloudy.9 mph64%30.28 "Hg6 mi
8:51 pm66 °FThunderstorms. Mostly cloudy.9 mph64%30.24 "Hg5 mi
8:26 pm68 °FThunderstorms. Mostly cloudy.18 mph53%30.21 "Hg6 mi
7:58 pm72 °FMostly cloudy.21 mph44%30.20 "Hg6 mi
6:50 pm81 °FMostly cloudy.23 mph30%29.53 "Hg6 mi
5:44 pm82 °FPartly sunny.15 mph16%30.14 "Hg7 mi
4:51 pm84 °FScattered clouds.9 mph15%30.15 "Hg7 mi
3:53 pm84 °FPassing clouds.12 mph13%29.52 "Hg7 mi
2:50 pm82 °FPassing clouds.10 mph16%30.21 "Hg6 mi
1:49 pm81 °FScattered clouds.6 mph15%30.24 "Hg7 mi
12:52 pm79 °FPassing clouds.7 mph21%29.64 "Hg7 mi
Weather by CustomWeather, © 2019

See weather overview